THORAD DELTA 1 DEB, 42597

Orbit data source: Space-Track

THORAD DELTA 1 DEB, 42597 is space debris in SSO originally from a launch on Fri, 15 Nov 1974 UTC launched from the Air Force Western Test Range (AFWTR). Debris objects in space refer to the collection of defunct objects orbiting the Earth. Examples of debris include non-operational satellites, rocket bodies, and fragments generated from explosions, collisions, or faulty payload assembly.

Loading next visibility...
Identifier
42597, 1974-089FN
Orbit
SSO
Country
Flag of USUS
Related business
Manufacturer
Unknown
Mission
Spacecraft
Bus & Motor
Unknown
Mass
Unknown
Launch date (UTC)
1974-11-15 (51 years ago)
Launch vehicle
Unknown
Launch site
Air Force Western Test Range (AFWTR)
Object type
Payload
Rocket body
Debris
Shape & HBR
Unknown shape, 0.1 m
Radar Cross Section
Small (<0.1 m²)

Expand to show TLE details & history
Last TLE update: 21 hours ago

TLE from 21 hours ago
0 THORAD DELTA 1 DEB
1 42597U 74089FN  25309.66657587  .00000271  00000-0  14894-2 0  9992
2 42597 101.5288 292.5922 0190771 140.7937 220.7141 12.69538058554021
Epoch: 2025-11-05T15:59Z
TLE epoch observation values (Epoch: 2025-11-05T15:59:52.155Z)
Latitude
0.00004°
Longitude
7.48891°
Altitude
1,499.865 km
Speed
7.062 km/s
True Right ascension
19h 30m 22s
True Declination
0° 00' 00"
Sunlit
Object was in daylight at epoch
Visualization orbit readout
Latitude
Unknown
Longitude
Unknown
Altitude
Unknown
Speed
Unknown
Apparent Right ascension
Unknown
Apparent Declination
Unknown
Sunlit
N/A
Visualization observer readout
Local Sidereal Time
09:20:26
Azimuth
Unknown
Elevation
Unknown
Doppler factor
Unknown
Orbital elements
Apogee altitude
1,529.357 km
Perigee altitude
1,233.301 km
Semi-major axis
7,759.466 km
Eccentricity
0.01908
Inclination
101.5288°
RAAN
292.5922°
Arg. of periapsis
140.7937°
True anomaly
219.31363°
Mean anomaly
220.7141°
Eccentric anomaly
220.01134°
Mean motion
3.17538 °/min
Orbital period
113.37 mins
BSTAR
0.0014894
Loading maneuver chart data...
Computing Atmospheric mass density...

Documentation

Showing up to 5 results
|